Location: Dappach
(48.9767°N, 9.6998°E)
Time: 21:56:45
(UTC+00:00)

USA 234 - Pass Details

Date: 23 May 2024
Orbit: 1100 x 1107 km, 123.0° (Epoch: 12 June)

Event Time Altitude Azimuth Distance (km) Brightness Sun altitude
Exits shadow 00:56:33 17° 167° (SSE) 2,490 4.7 -17.0°
Maximum altitude 01:01:11 39° 228° (SW) 1,595 3.7 -16.7°
Drops below altitude 10° 01:07:14 10° 295° (WNW) 2,964 5.5 -16.2°
Sets 01:09:56 0° 303° (WNW) 3,924 6.2 -16.0°
